Temperature
30 30 30 30 30 29 29 30 30 29 29 30 29 28 27 25 24 24 23 22 22 21 21 20 20 20 20 20 19 19 19 19 19 19 18 18 18 18 17 17 17 17 17 17
28 29 29 29 29 29 29 29 29 29 29 30 28 27 26 25 24 23 23 22 21 21 20 20 20 20 20 19 19 19 19 18 19 18 18 18 18 18 17 17 17 17 16 16
28 28 28 28 29 29 29 29 29 29 29 29 28 27 25 24 24 23 23 22 21 21 20 20 20 20 19 19 19 19 19 19 18 18 18 17 17 17 17 16 16 16 16 16
28 27 26 28 29 29 28 28 28 28 28 27 27 25 24 24 23 22 22 22 21 21 20 20 20 20 19 19 19 19 18 18 18 18 17 17 17 17 16 16 16 16 16 16
27 27 27 27 27 27 27 27 27 27 27 26 25 25 24 23 22 22 22 21 21 20 20 20 20 19 19 19 18 18 18 18 18 17 17 17 17 16 16 16 16 16 16 15
26 26 26 27 27 26 26 26 26 26 26 25 25 26 25 22 21 21 21 20 20 20 20 20 19 19 19 18 18 18 18 18 17 17 17 16 16 16 16 16 15 15 15 15
26 26 27 26 25 25 25 25 24 24 24 23 24 24 22 21 20 20 20 19 19 19 19 19 19 18 18 18 18 18 17 17 17 16 16 16 16 15 15 15 15 15 15 15
25 25 25 25 25 25 24 23 23 23 22 22 22 21 20 20 19 19 19 19 19 18 18 18 18 18 18 17 17 17 17 16 16 16 16 16 15 15 15 15 14 14 14 14
25 25 23 23 23 23 22 22 22 21 21 21 21 20 19 19 19 18 18 18 18 18 18 17 17 17 17 17 17 17 16 16 16 16 16 15 15 15 15 14 14 14 14 14
23 24 23 22 22 21 21 21 20 20 20 20 20 19 19 18 18 18 18 18 17 17 17 17 17 17 17 16 16 16 16 16 15 15 15 15 15 15 14 14 14 14 14 14
22 23 22 21 21 20 20 20 20 19 19 19 19 18 18 17 17 17 17 17 17 17 17 16 16 16 16 16 16 16 15 15 15 15 15 14 14 14 14 14 14 14 14 13
22 22 22 21 20 20 19 19 19 19 19 18 18 18 17 17 17 17 17 17 16 16 16 16 16 16 16 16 15 15 15 15 15 15 14 14 14 14 14 14 14 14 13 13
20 20 20 19 19 19 19 18 18 18 18 18 17 17 17 17 16 16 16 16 16 16 16 16 16 16 16 15 15 15 14 14 14 14 14 14 14 14 14 14 13 13 13 13
18 18 18 18 18 18 18 18 18 17 17 17 17 16 16 16 16 16 15 15 15 15 15 15 15 15 15 15 14 14 14 14 14 14 14 13 13 13 13 13 13 13 13 13
17 17 18 18 17 17 17 17 17 17 17 16 16 16 15 15 15 15 15 15 15 15 15 14 14 14 14 14 14 13 13 13 13 13 13 13 13 13 13 13 13 13 12 12
17 17 17 17 17 17 17 17 17 16 16 16 15 15 15 15 15 15 14 14 14 14 14 14 14 14 14 14 13 13 13 13 13 13 13 12 12 12 12 12 12 12 12 12
16 16 16 16 16 16 16 16 16 15 15 15 15 14 14 14 14 14 14 14 14 14 14 14 14 13 13 13 13 13 13 13 13 12 12 12 12 12 12 12 12 12 12 12
15 15 16 15 15 15 15 15 15 15 15 14 14 14 14 14 14 13 13 13 13 13 13 13 13 13 13 13 12 13 13 12 12 12 12 12 12 12 12 12 12 12 12 11
15 15 15 14 14 14 14 14 14 14 14 14 14 13 13 13 13 13 13 13 13 13 13 13 13 13 12 12 12 12 12 12 12 12 12 12 12 12 12 12 11 11 11 11
14 14 14 14 14 14 14 14 14 14 13 13 13 13 13 13 13 13 13 13 13 13 13 13 13 13 12 12 12 12 12 12 12 12 12 11 12 11 11 11 11 11 11 11
13 13 13 13 13 13 13 13 13 13 13 13 13 13 12 12 12 12 12 13 12 12 12 12 12 12 12 12 12 12 12 11 11 11 11 11 11 11 11 11 11 11 10 10
12 13 13 13 13 13 13 13 13 13 12 12 12 12 12 12 12 12 12 12 12 12 12 12 12 12 11 11 11 11 11 11 11 11 11 11 11 11 11 11 10 10 10 10
12 12 12 12 12 12 12 12 12 12 12 12 12 12 12 12 12 12 12 12 12 12 11 11 11 11 11 11 11 11 11 11 11 11 11 10 10 10 10 10 10 10 10 10
11 12 12 12 12 12 12 12 12 12 12 12 12 12 11 11 11 11 11 11 11 11 11 11 11 11 11 10 10 10 10 10 10 10 10 10 10 10 10 10 10 10 9 9
11 11 11 11 12 12 12 11 11 11 11 11 11 11 11 11 11 11 11 11 11 11 10 10 11 10 10 10 10 10 10 10 10 10 10 10 10 9 9 9 9 9 9 9
11 11 11 11 11 11 12 11 11 11 11 11 11 11 11 11 10 10 10 10 10 10 10 10 10 10 10 10 10 10 10 10 9 10 9 9 9 9 9 9 9 9 9 9
11 11 11 11 11 11 11 11 11 11 11 11 11 11 10 10 10 10 10 10 10 10 10 10 10 10 10 10 10 10 10 10 9 9 9 9 9 9 9 9 9 9 8 8
Wind_Speed
11 7 8 10 11 12 14 13 11 8 8 5 3 2 2 2 3 4 5 6 7 7 7 7 7 7 7 7 7 7 8 7 7 6 6 5 4 4 4 5 5 5 5 5
12 10 10 11 11 12 13 12 12 10 8 4 2 2 2 3 4 5 5 5 6 7 7 7 7 7 6 6 6 7 7 7 6 6 6 5 5 5 4 4 4 5 5 5
11 10 10 13 11 12 11 10 11 11 8 3 3 3 3 3 4 5 5 5 6 6 7 7 7 7 7 6 6 6 6 6 6 6 5 5 5 4 4 4 4 5 5 6
9 9 13 5 3 7 9 8 7 7 5 5 4 3 3 3 4 4 5 5 5 6 6 7 7 7 6 7 7 7 6 5 5 5 5 4 4 4 4 4 4 5 5 5
9 12 10 5 4 5 7 7 4 6 5 5 3 3 3 1 2 3 4 5 5 5 6 6 6 7 7 7 6 6 6 5 5 5 5 5 5 5 4 4 4 4 4 4
10 12 12 5 4 3 6 7 2 3 4 3 4 5 1 1 2 2 3 3 4 5 6 6 6 6 7 6 6 6 5 5 5 5 5 5 5 4 3 3 4 4 3 2
13 12 7 1 3 5 8 3 0 2 2 2 3 4 2 1 1 2 2 3 4 4 5 5 6 6 6 5 5 5 4 4 4 4 5 4 4 4 4 3 3 3 3 2
10 12 7 2 4 4 1 3 1 1 1 2 2 1 1 1 2 3 3 4 4 4 5 5 5 5 5 4 4 4 4 4 4 4 4 4 4 4 4 3 4 4 3 3
5 3 3 2 1 1 1 1 2 3 3 2 2 1 1 1 2 3 4 4 4 5 5 4 4 4 4 4 3 4 4 3 3 4 4 3 4 4 4 4 4 4 3 3
3 3 1 1 1 1 1 1 2 3 2 2 1 1 2 2 2 3 3 3 4 4 4 4 3 3 3 3 4 4 4 3 3 4 4 3 3 3 3 4 4 3 3 3
5 4 2 2 1 1 1 1 2 2 2 1 1 2 2 3 3 3 3 3 3 3 3 3 2 2 2 3 4 4 4 4 4 4 3 3 3 2 3 2 2 3 3 3
5 3 3 2 1 2 2 2 2 3 3 2 1 2 3 3 3 3 3 2 2 2 2 2 2 2 2 3 4 4 4 4 4 3 3 3 3 2 2 1 1 1 2 3
5 5 4 4 3 3 2 2 2 2 2 2 1 2 3 3 3 2 2 2 2 2 2 2 2 2 2 3 4 4 4 4 3 3 3 4 3 3 2 1 3 4 4 3
3 4 5 4 4 3 2 2 1 1 1 1 1 1 2 3 3 3 3 3 2 2 1 1 1 1 1 3 3 4 4 3 3 3 3 3 3 3 3 3 2 1 3 6
5 5 5 4 3 2 2 2 1 1 1 1 0 1 2 3 3 3 3 3 2 2 1 1 1 1 1 2 3 4 4 3 3 3 3 3 3 3 3 3 3 2 2 3
4 4 3 3 3 3 2 2 2 1 1 1 0 1 2 2 3 3 3 3 3 2 2 2 2 1 2 2 2 3 3 2 3 3 3 3 3 3 3 3 3 3 3 2
5 5 4 3 3 2 2 2 2 2 1 1 1 1 1 1 2 2 2 3 3 2 2 2 2 1 2 3 3 3 3 3 4 4 3 3 3 3 3 3 3 3 3 2
4 4 3 3 3 2 2 2 2 2 2 1 1 1 1 1 2 2 2 2 2 2 2 2 2 2 2 3 3 3 3 3 3 3 3 3 3 4 4 3 3 3 3 2
2 2 2 2 2 2 2 2 2 2 1 2 2 2 2 2 2 2 2 2 2 3 2 2 2 2 3 3 2 3 3 3 3 3 3 3 4 4 4 4 4 4 3 3
2 2 1 1 1 2 2 2 2 2 2 2 2 2 1 2 2 2 2 3 2 1 1 0 1 2 2 2 2 3 4 4 4 4 4 4 5 4 4 4 4 4 3 3
2 2 2 1 2 2 2 2 2 2 3 3 3 2 2 2 2 2 3 2 1 1 1 1 2 2 2 1 4 4 4 4 4 4 4 4 4 4 4 4 4 4 4 4
2 2 2 2 2 1 2 2 2 3 3 3 2 2 2 2 2 2 2 1 1 1 0 1 1 1 2 2 3 3 3 3 3 3 3 3 3 4 4 4 3 3 4 4
2 2 2 2 1 1 1 2 2 2 3 2 2 2 2 2 2 2 1 1 1 1 1 0 2 2 2 3 2 2 3 2 2 3 3 3 3 3 3 3 3 3 3 4
1 1 1 1 1 1 1 1 1 1 1 2 2 2 2 2 1 1 1 1 1 0 1 2 3 0 3 2 2 2 2 2 2 2 2 2 2 2 2 2 2 2 3 4
1 1 0 1 1 0 1 1 1 1 1 1 0 1 1 1 1 1 0 1 1 1 1 2 3 2 2 2 2 2 2 2 2 2 2 2 2 2 2 2 2 2 3 3
0 0 0 0 1 1 0 0 0 0 0 0 0 0 0 0 0 0 0 1 1 1 1 1 2 3 2 2 2 2 2 2 2 2 2 2 3 2 2 2 3 3 3 3
0 0 1 1 0 0 1 1 1 1 1 0 0 0 1 1 1 1 0 0 1 1 1 2 2 2 2 2 2 2 2 2 2 2 2 2 2 2 2 2 2 2 3 3
Wind_Direction
249 248 236 233 230 226 236 250 261 263 264 278 291 279 248 211 188 173 171 170 168 166 166 169 170 172 175 179 180 182 182 185 184 185 184 183 189 195 204 209 208 209 215 216
238 237 237 241 237 232 235 244 250 260 266 284 304 254 226 210 203 197 189 179 172 169 169 174 177 177 175 180 180 182 187 189 185 184 182 185 192 198 205 213 218 217 220 224
234 228 237 239 233 231 231 239 248 252 260 269 267 252 240 222 213 200 190 185 179 177 177 180 177 174 175 175 173 175 183 186 184 186 190 195 199 201 212 222 223 224 226 225
236 223 237 234 205 225 232 240 249 259 279 283 274 254 246 236 217 200 183 179 180 178 179 180 176 173 175 171 175 179 184 185 187 189 195 196 198 207 217 224 227 233 235 234
234 233 235 210 193 214 227 236 252 261 271 276 250 227 222 215 214 203 185 182 182 180 176 169 167 165 168 172 175 180 182 186 190 196 200 203 204 209 214 221 223 228 229 235
234 241 240 223 159 199 226 228 236 265 272 264 229 244 240 90 202 195 170 165 167 168 163 160 160 162 169 175 176 183 186 190 197 203 207 207 207 210 211 214 218 226 225 230
237 241 242 117 147 186 227 237 76 255 266 261 255 305 1 49 163 163 146 143 150 153 153 154 158 162 170 175 182 180 180 188 197 204 208 209 211 213 212 213 217 225 225 226
234 238 233 101 169 215 309 32 12 303 288 283 289 313 63 104 134 140 139 135 136 137 138 144 153 160 169 175 177 176 181 195 205 211 220 207 206 211 208 211 211 212 217 232
242 242 65 111 137 83 26 351 330 309 303 280 265 225 163 141 135 141 144 140 141 141 135 137 148 164 175 172 171 173 181 196 207 210 216 215 217 217 215 217 231 230 226 231
226 204 169 151 97 63 7 337 324 322 317 300 270 226 191 165 154 156 143 140 142 139 135 139 154 172 181 172 170 176 187 193 198 202 206 204 230 235 238 237 239 243 241 236
226 215 201 199 210 324 350 344 339 333 330 325 269 235 204 186 177 172 160 151 150 157 156 157 167 183 194 181 181 190 194 197 202 201 194 199 213 250 249 267 273 262 258 249
248 247 255 243 277 297 314 324 320 314 313 308 264 230 219 202 192 179 173 164 174 185 179 176 177 189 196 197 196 203 209 213 211 203 195 204 201 206 98 214 132 201 262 272
273 281 280 273 283 288 283 294 300 298 285 287 275 226 218 202 194 191 186 190 197 200 190 190 202 197 193 192 193 206 222 223 223 216 207 214 215 220 226 195 171 183 192 202
277 272 261 261 269 279 275 277 295 309 309 302 260 220 205 194 190 190 193 194 187 180 179 176 189 194 199 191 194 204 219 214 225 225 226 224 226 229 230 230 226 226 189 182
271 265 263 265 260 263 262 264 278 303 320 328 221 213 205 194 185 184 182 186 183 187 191 182 189 221 208 199 204 213 222 224 225 233 227 225 226 230 232 224 226 231 230 180
271 262 258 246 247 255 262 262 266 284 307 335 316 241 216 192 171 169 182 197 204 210 212 213 227 231 212 213 220 226 227 198 226 232 225 216 217 222 226 224 228 232 235 234
258 254 252 246 243 251 259 263 259 262 267 291 311 282 206 178 172 183 203 220 227 227 224 227 232 217 216 225 231 237 232 201 203 228 229 223 225 228 226 229 233 245 249 225
264 259 251 251 252 251 254 257 255 255 253 271 275 230 201 206 230 230 225 231 230 226 227 231 219 199 216 232 239 247 233 223 220 228 228 228 235 236 234 229 232 246 254 222
264 255 244 250 259 253 247 254 262 270 267 247 231 232 232 236 243 242 223 216 220 226 234 227 172 209 222 230 238 239 235 227 231 238 238 229 237 241 236 234 236 240 244 246
286 270 251 246 265 265 259 257 252 261 266 262 250 231 223 234 234 222 209 218 229 261 250 230 223 244 251 234 242 241 237 233 235 241 242 241 243 245 243 235 234 238 239 240
289 269 255 267 285 295 282 263 233 246 261 255 240 232 233 236 232 224 224 231 245 330 277 182 225 247 254 292 250 248 239 237 239 242 245 245 247 247 246 246 243 242 241 241
281 268 257 250 250 270 277 264 230 219 228 234 235 232 238 240 236 232 239 275 314 59 282 239 240 48 351 297 257 253 242 241 245 242 241 242 244 246 247 248 247 246 245 243
283 271 260 258 263 267 265 257 236 222 224 229 230 229 241 257 258 255 258 323 347 22 274 272 61 72 287 255 250 238 238 240 241 239 239 243 244 248 250 245 244 244 249 253
297 292 279 256 246 237 242 270 256 227 219 223 219 216 231 233 245 261 295 116 108 167 259 91 95 199 250 242 242 231 229 227 231 239 240 237 235 238 240 236 238 247 251 256
309 320 216 215 230 234 141 142 143 171 199 178 155 166 225 239 253 269 237 148 125 178 201 132 157 215 230 235 230 227 227 223 232 243 243 242 240 239 239 243 251 258 263 265
300 265 34 334 344 334 280 250 249 237 227 130 77 74 84 96 119 102 156 161 163 191 222 196 193 213 231 236 235 232 232 212 216 233 246 249 247 249 250 254 267 273 274 273
265 215 200 204 197 290 305 303 284 278 281 322 336 5 42 39 29 21 300 225 189 202 222 226 224 230 249 254 244 233 231 231 233 241 247 251 253 257 259 257 261 267 272 271
Height
1462 1460 1462 1465 1467 1468 1470 1469 1472 1470 1469 1466 1467 1471 1475 1477 1480 1482 1484 1485 1486 1488 1490 1492 1494 1496 1498 1500 1503 1505 1507 1508 1509 1510 1512 1512 1513 1514 1514 1515 1515 1515 1515 1515
1467 1462 1463 1465 1464 1465 1466 1466 1466 1467 1468 1465 1469 1472 1475 1476 1478 1480 1482 1484 1485 1486 1488 1490 1492 1494 1496 1498 1501 1503 1504 1506 1507 1508 1509 1509 1510 1510 1511 1511 1512 1512 1512 1513
1467 1463 1466 1470 1463 1462 1464 1462 1463 1467 1466 1465 1468 1471 1473 1475 1476 1478 1480 1482 1484 1485 1486 1488 1490 1491 1494 1496 1498 1500 1501 1503 1504 1505 1505 1506 1507 1507 1508 1508 1509 1509 1509 1509
1464 1470 1481 1462 1456 1458 1461 1462 1462 1463 1465 1467 1469 1471 1473 1474 1475 1477 1479 1480 1482 1484 1485 1487 1488 1490 1492 1494 1496 1497 1499 1500 1501 1501 1502 1503 1504 1504 1505 1505 1506 1506 1506 1506
1463 1468 1464 1460 1458 1460 1463 1463 1463 1464 1465 1467 1468 1470 1471 1473 1474 1476 1477 1478 1480 1482 1484 1485 1487 1488 1490 1492 1494 1495 1496 1496 1498 1499 1499 1500 1501 1501 1502 1502 1502 1503 1503 1502
1463 1468 1470 1458 1457 1461 1463 1466 1464 1465 1465 1466 1467 1465 1467 1471 1473 1474 1475 1476 1478 1479 1481 1483 1484 1486 1488 1489 1491 1492 1493 1494 1495 1496 1497 1497 1497 1498 1499 1499 1499 1500 1500 1499
1461 1463 1457 1456 1459 1462 1469 1466 1464 1465 1466 1467 1467 1467 1469 1470 1471 1472 1474 1475 1476 1477 1479 1480 1482 1484 1485 1487 1488 1489 1490 1491 1493 1493 1494 1494 1495 1495 1496 1496 1496 1496 1496 1496
1459 1463 1463 1459 1459 1461 1464 1465 1465 1466 1467 1467 1468 1468 1469 1469 1470 1471 1472 1473 1474 1475 1477 1478 1479 1481 1483 1484 1485 1486 1487 1489 1490 1491 1491 1492 1492 1492 1492 1493 1493 1493 1493 1493
1454 1458 1460 1460 1461 1464 1464 1465 1466 1466 1466 1467 1467 1468 1469 1469 1469 1469 1470 1471 1472 1474 1475 1476 1477 1479 1481 1482 1483 1484 1485 1486 1487 1487 1488 1488 1489 1490 1490 1490 1491 1491 1491 1491
1457 1457 1460 1462 1463 1464 1465 1466 1466 1466 1466 1466 1466 1467 1467 1468 1468 1469 1469 1470 1471 1472 1473 1474 1475 1477 1478 1479 1480 1481 1482 1483 1484 1484 1485 1485 1486 1486 1487 1488 1488 1488 1488 1488
1458 1459 1461 1462 1463 1464 1465 1465 1465 1465 1465 1465 1465 1465 1466 1467 1467 1468 1468 1469 1469 1470 1471 1472 1473 1474 1475 1475 1476 1478 1479 1480 1481 1481 1482 1482 1483 1483 1484 1484 1484 1484 1484 1484
1456 1459 1460 1462 1463 1464 1464 1464 1464 1464 1464 1464 1464 1464 1464 1465 1466 1466 1467 1467 1468 1468 1470 1470 1471 1471 1472 1473 1474 1475 1476 1476 1477 1478 1479 1479 1480 1480 1479 1481 1480 1481 1481 1481
1460 1460 1461 1462 1462 1463 1463 1463 1463 1462 1462 1462 1462 1462 1462 1463 1464 1465 1465 1466 1466 1466 1467 1467 1468 1469 1469 1470 1471 1471 1473 1474 1474 1475 1476 1476 1476 1476 1477 1477 1477 1477 1478 1478
1459 1460 1460 1460 1461 1461 1461 1461 1461 1461 1461 1461 1460 1461 1461 1461 1462 1463 1463 1464 1465 1465 1465 1465 1466 1466 1467 1467 1468 1469 1470 1471 1471 1472 1472 1473 1473 1473 1474 1474 1474 1475 1475 1475
1458 1458 1458 1459 1459 1459 1460 1460 1459 1459 1459 1459 1459 1459 1459 1460 1460 1461 1462 1462 1463 1463 1463 1463 1464 1464 1465 1465 1466 1467 1468 1468 1469 1469 1469 1469 1470 1470 1471 1471 1472 1472 1472 1472
1456 1456 1457 1457 1457 1458 1458 1458 1458 1458 1458 1458 1458 1458 1458 1459 1459 1460 1460 1461 1461 1461 1461 1461 1462 1462 1463 1463 1464 1464 1465 1465 1465 1466 1466 1466 1467 1468 1468 1469 1469 1469 1469 1470
1455 1455 1455 1455 1456 1456 1457 1457 1457 1457 1457 1457 1457 1457 1457 1457 1458 1458 1459 1459 1460 1460 1460 1460 1460 1460 1461 1461 1462 1462 1462 1462 1462 1463 1464 1464 1465 1465 1466 1466 1466 1466 1466 1466
1453 1453 1454 1454 1454 1455 1455 1455 1455 1456 1456 1456 1456 1456 1456 1456 1456 1456 1457 1457 1458 1458 1458 1458 1458 1458 1458 1459 1459 1460 1460 1460 1461 1461 1462 1462 1462 1462 1463 1463 1463 1463 1464 1464
1451 1452 1452 1452 1453 1453 1453 1453 1454 1454 1454 1454 1454 1454 1454 1454 1454 1454 1455 1455 1455 1455 1456 1456 1456 1456 1456 1456 1457 1457 1458 1458 1458 1459 1459 1459 1459 1459 1459 1460 1460 1460 1461 1461
1450 1450 1450 1450 1451 1451 1450 1450 1451 1452 1452 1452 1452 1452 1452 1452 1452 1453 1453 1453 1454 1454 1454 1453 1453 1453 1454 1454 1455 1455 1455 1456 1456 1456 1456 1456 1456 1456 1456 1456 1457 1457 1457 1457
1448 1448 1448 1448 1448 1448 1448 1448 1449 1449 1450 1450 1450 1450 1450 1451 1451 1451 1451 1452 1452 1452 1451 1451 1452 1452 1453 1453 1452 1453 1453 1453 1453 1453 1453 1453 1453 1453 1453 1453 1453 1453 1453 1453
1446 1446 1446 1446 1446 1446 1446 1446 1447 1447 1448 1448 1449 1449 1449 1449 1449 1449 1449 1450 1450 1449 1450 1450 1451 1451 1450 1450 1450 1451 1451 1451 1451 1450 1450 1450 1450 1449 1449 1449 1449 1449 1449 1449
1444 1444 1444 1444 1444 1444 1444 1444 1444 1445 1445 1446 1446 1447 1447 1447 1448 1448 1447 1448 1448 1448 1448 1448 1448 1448 1448 1448 1448 1449 1448 1448 1448 1448 1448 1447 1447 1446 1446 1445 1446 1446 1446 1446
1442 1442 1442 1442 1442 1442 1442 1442 1442 1443 1443 1444 1444 1445 1445 1446 1446 1446 1446 1446 1445 1445 1446 1446 1446 1446 1446 1446 1446 1446 1446 1446 1446 1446 1445 1445 1445 1444 1444 1443 1443 1443 1443 1443
1441 1441 1441 1441 1441 1441 1441 1441 1441 1442 1442 1442 1443 1443 1443 1444 1444 1444 1444 1443 1443 1444 1444 1444 1444 1444 1444 1444 1444 1444 1444 1444 1444 1444 1443 1443 1443 1442 1442 1442 1441 1441 1441 1440
1441 1441 1441 1441 1441 1440 1440 1441 1441 1441 1441 1441 1442 1442 1442 1442 1442 1442 1442 1442 1442 1442 1443 1443 1443 1443 1443 1443 1443 1442 1442 1442 1442 1442 1442 1441 1441 1441 1440 1440 1439 1439 1438 1438
1441 1440 1440 1440 1440 1440 1440 1440 1440 1440 1441 1441 1441 1441 1441 1441 1441 1441 1441 1441 1441 1441 1442 1442 1442 1442 1442 1442 1441 1441 1441 1441 1441 1440 1440 1439 1439 1439 1438 1438 1437 1437 1436 1436